�������l�o���
Date,Time,MP-1(��Sv/h),MP-2(��Sv/h),MP-3(��Sv/h),MP-4(��Sv/h),MP-5(��Sv/h),MP-6(��Sv/h),MP-7(��Sv/h),MP-8(��Sv/h),����,����(m/s),���J
2023/02/07,00:00,0.570,0.825,0.519,1.062,0.732,0.323,0.589,0.558,���k��,5.1,��
2023/02/07,00:10,0.570,0.825,0.517,1.060,0.733,0.325,0.588,0.557,���k��,5.1,��
2023/02/07,00:20,0.572,0.826,0.517,1.061,0.734,0.325,0.588,0.557,���k��,5.6,��
2023/02/07,00:30,0.570,0.826,0.518,1.060,0.735,0.324,0.590,0.558,��,4.4,��
2023/02/07,00:40,0.571,0.825,0.518,1.062,0.732,0.325,0.589,0.559,��,4.7,��
2023/02/07,00:50,0.572,0.824,0.518,1.063,0.733,0.324,0.587,0.558,��,5.2,��
2023/02/07,01:00,0.572,0.824,0.518,1.061,0.733,0.325,0.588,0.558,��,5.0,��
2023/02/07,01:10,0.570,0.826,0.519,1.060,0.733,0.325,0.589,0.559,��,5.3,��
2023/02/07,01:20,0.570,0.826,0.518,1.062,0.731,0.324,0.587,0.558,��,4.8,��
2023/02/07,01:30,0.570,0.826,0.518,1.061,0.733,0.324,0.587,0.556,��,4.2,��
2023/02/07,01:40,0.571,0.826,0.518,1.061,0.734,0.324,0.588,0.557,��,5.0,��
2023/02/07,01:50,0.569,0.823,0.517,1.060,0.732,0.325,0.587,0.559,��,5.2,��
2023/02/07,02:00,0.571,0.825,0.517,1.061,0.734,0.325,0.587,0.558,���쐼,4.1,��
2023/02/07,02:10,0.571,0.826,0.520,1.060,0.733,0.325,0.589,0.558,��,3.1,��
2023/02/07,02:20,0.571,0.824,0.518,1.061,0.734,0.325,0.587,0.559,���k��,4.0,��
2023/02/07,02:30,0.569,0.824,0.518,1.060,0.734,0.324,0.587,0.558,��,4.2,��
2023/02/07,02:40,0.571,0.824,0.517,1.058,0.732,0.323,0.587,0.559,���k��,4.6,��
2023/02/07,02:50,0.571,0.825,0.519,1.061,0.734,0.324,0.587,0.558,���k��,5.2,��
2023/02/07,03:00,0.569,0.824,0.517,1.061,0.735,0.324,0.588,0.557,���k��,5.5,��
2023/02/07,03:10,0.571,0.823,0.518,1.061,0.733,0.325,0.587,0.558,��,5.6,��
2023/02/07,03:20,0.571,0.826,0.517,1.061,0.733,0.326,0.589,0.560,��,6.3,��
2023/02/07,03:30,0.572,0.825,0.519,1.061,0.734,0.324,0.588,0.558,��,7.4,��
2023/02/07,03:40,0.570,0.825,0.520,1.061,0.734,0.324,0.587,0.557,��,6.4,��
2023/02/07,03:50,0.571,0.826,0.518,1.062,0.733,0.325,0.588,0.558,��,6.5,��
2023/02/07,04:00,0.571,0.824,0.518,1.061,0.732,0.324,0.590,0.557,��,7.4,��
2023/02/07,04:10,0.570,0.825,0.517,1.061,0.733,0.326,0.588,0.557,��,7.8,��
2023/02/07,04:20,0.573,0.824,0.518,1.061,0.732,0.324,0.588,0.557,��,8.3,��
2023/02/07,04:30,0.569,0.826,0.519,1.059,0.735,0.325,0.590,0.558,��,8.7,��
2023/02/07,04:40,0.571,0.824,0.518,1.062,0.734,0.325,0.588,0.559,��,9.0,��
2023/02/07,04:50,0.569,0.824,0.518,1.061,0.734,0.324,0.587,0.557,��,8.1,��
2023/02/07,05:00,0.571,0.824,0.519,1.060,0.733,0.325,0.588,0.558,��,7.8,��
2023/02/07,05:10,0.570,0.826,0.518,1.062,0.731,0.324,0.589,0.559,��,8.9,��
2023/02/07,05:20,0.571,0.824,0.518,1.061,0.732,0.325,0.586,0.557,��,9.3,��
2023/02/07,05:30,0.570,0.824,0.517,1.061,0.731,0.325,0.588,0.557,��,8.4,��
2023/02/07,05:40,0.570,0.824,0.518,1.061,0.733,0.326,0.588,0.558,��,8.8,��
2023/02/07,05:50,0.570,0.826,0.518,1.065,0.734,0.325,0.587,0.558,��,8.5,��
2023/02/07,06:00,0.570,0.825,0.519,1.063,0.733,0.324,0.588,0.556,��,7.5,��
2023/02/07,06:10,0.571,0.824,0.519,1.058,0.733,0.325,0.587,0.559,��,7.6,��
2023/02/07,06:20,0.571,0.824,0.517,1.061,0.734,0.325,0.588,0.558,��,7.7,��
2023/02/07,06:30,0.569,0.826,0.517,1.063,0.732,0.325,0.587,0.557,��,8.4,��
2023/02/07,06:40,0.572,0.825,0.518,1.062,0.733,0.325,0.589,0.558,��,8.2,��
2023/02/07,06:50,0.570,0.824,0.518,1.062,0.732,0.325,0.588,0.558,��,8.2,��
2023/02/07,07:00,0.571,0.824,0.517,1.061,0.732,0.323,0.588,0.558,���k��,8.3,��
2023/02/07,07:10,0.571,0.824,0.517,1.060,0.733,0.325,0.586,0.557,���k��,8.3,��
2023/02/07,07:20,0.570,0.826,0.518,1.060,0.733,0.324,0.587,0.558,���k��,7.8,��
2023/02/07,07:30,0.571,0.825,0.518,1.062,0.733,0.326,0.589,0.556,���k��,7.4,��
2023/02/07,07:40,0.570,0.823,0.519,1.063,0.732,0.324,0.589,0.557,���k��,7.7,��
2023/02/07,07:50,0.571,0.825,0.518,1.058,0.734,0.325,0.587,0.558,���k��,7.9,��
2023/02/07,08:00,0.571,0.823,0.519,1.062,0.733,0.324,0.587,0.557,���k��,5.5,��
2023/02/07,08:10,0.572,0.823,0.518,1.061,0.731,0.325,0.586,0.559,�k��,4.5,��
2023/02/07,08:20,0.570,0.826,0.520,1.062,0.732,0.325,0.586,0.558,�k��,6.6,��
2023/02/07,08:30,0.570,0.823,0.519,1.061,0.733,0.325,0.586,0.558,�k�k��,5.5,��
2023/02/07,08:40,0.570,0.826,0.519,1.059,0.730,0.326,0.587,0.557,�k�k��,4.8,��
2023/02/07,08:50,0.571,0.824,0.518,1.062,0.733,0.325,0.587,0.557,�k,4.6,��
2023/02/07,09:00,0.572,0.825,0.517,1.061,0.733,0.325,0.587,0.557,�k�k��,5.4,��
2023/02/07,09:10,0.568,0.823,0.519,1.062,0.733,0.324,0.587,0.557,�k�k��,4.9,��
2023/02/07,09:20,0.563,0.824,0.520,1.061,0.733,0.324,0.585,0.556,�k,4.3,��
2023/02/07,09:30,0.563,0.823,0.518,1.063,0.732,0.324,0.586,0.558,�k,4.2,��
2023/02/07,09:40,0.562,0.826,0.520,1.062,0.734,0.324,0.587,0.558,�k,4.9,��
2023/02/07,09:50,0.563,0.825,0.518,1.063,0.734,0.324,0.586,0.556,�k,4.6,��
2023/02/07,10:00,0.562,0.825,0.518,1.063,0.733,0.324,0.587,0.558,�k�k��,5.4,��
2023/02/07,10:10,0.559,0.826,0.518,1.063,0.733,0.325,0.586,0.560,�k,4.7,��
2023/02/07,10:20,0.562,0.827,0.520,1.060,0.735,0.324,0.587,0.559,�k,6.2,��
2023/02/07,10:30,0.559,0.824,0.519,1.063,0.734,0.325,0.587,0.557,�k,6.4,��
2023/02/07,10:40,0.562,0.824,0.517,1.063,0.736,0.324,0.585,0.558,�k�k��,6.4,��
2023/02/07,10:50,0.562,0.824,0.518,1.063,0.735,0.322,0.585,0.559,�k,7.0,��
2023/02/07,11:00,0.564,0.826,0.519,1.063,0.734,0.323,0.585,0.559,�k�k��,7.0,��
2023/02/07,11:10,0.562,0.823,0.518,1.061,0.736,0.325,0.586,0.558,�k�k��,6.3,��
2023/02/07,11:20,0.563,0.823,0.518,1.064,0.732,0.324,0.585,0.559,�k�k��,5.8,��
2023/02/07,11:30,0.561,0.821,0.517,1.062,0.734,0.326,0.587,0.559,�k�k��,5.7,��
2023/02/07,11:40,0.562,0.823,0.517,1.061,0.732,0.325,0.586,0.559,�k�k��,5.2,��
2023/02/07,11:50,0.563,0.824,0.518,1.061,0.733,0.323,0.588,0.557,�k�k��,5.6,��
2023/02/07,12:00,0.571,0.824,0.518,1.063,0.732,0.325,0.587,0.558,�k�k��,5.0,��
2023/02/07,12:10,0.570,0.823,0.520,1.060,0.731,0.325,0.587,0.558,�k�k��,4.7,��
2023/02/07,12:20,0.570,0.825,0.519,1.061,0.733,0.325,0.587,0.560,�k�k��,5.0,��
2023/02/07,12:30,0.570,0.822,0.518,1.063,0.732,0.325,0.587,0.560,�k�k��,4.9,��
2023/02/07,12:40,0.571,0.823,0.519,1.063,0.732,0.324,0.587,0.560,�k�k��,5.3,��
2023/02/07,12:50,0.569,0.823,0.517,1.063,0.733,0.325,0.587,0.561,�k�k��,4.6,��
2023/02/07,13:00,0.569,0.824,0.519,1.060,0.731,0.326,0.589,0.560,�k�k��,4.7,��
2023/02/07,13:10,0.570,0.823,0.519,1.062,0.733,0.325,0.587,0.560,�k�k��,3.9,��
2023/02/07,13:20,0.570,0.822,0.519,1.062,0.732,0.327,0.587,0.559,�k,4.6,��
2023/02/07,13:30,0.570,0.821,0.518,1.062,0.734,0.326,0.587,0.558,�k�k��,3.6,��
2023/02/07,13:40,0.572,0.823,0.518,1.060,0.733,0.326,0.587,0.558,�k,4.2,��
2023/02/07,13:50,0.570,0.824,0.518,1.062,0.735,0.326,0.587,0.557,�k�k��,3.9,��
2023/02/07,14:00,0.571,0.823,0.519,1.063,0.733,0.326,0.586,0.555,�k�k��,4.3,��
2023/02/07,14:10,0.572,0.822,0.519,1.060,0.733,0.325,0.587,0.556,�k�k��,3.4,��
2023/02/07,14:20,0.570,0.824,0.520,1.062,0.733,0.325,0.586,0.558,�k�k��,3.7,��
2023/02/07,14:30,0.571,0.822,0.519,1.062,0.734,0.327,0.586,0.555,�k�k��,4.1,��
2023/02/07,14:40,0.573,0.823,0.518,1.062,0.734,0.326,0.588,0.557,�k�k��,4.5,��
2023/02/07,14:50,0.572,0.824,0.520,1.061,0.732,0.324,0.587,0.558,�k�k��,4.4,��
2023/02/07,15:00,0.573,0.822,0.519,1.062,0.733,0.324,0.587,0.557,�k,3.5,��
2023/02/07,15:10,0.573,0.822,0.520,1.062,0.733,0.326,0.587,0.558,�k�k��,3.8,��
2023/02/07,15:20,0.572,0.825,0.521,1.062,0.735,0.325,0.587,0.559,�k�k��,3.4,��
2023/02/07,15:30,0.574,0.827,0.518,1.061,0.733,0.325,0.588,0.559,�k�k��,3.5,��
2023/02/07,15:40,0.572,0.827,0.519,1.063,0.734,0.326,0.587,0.561,�k�k��,3.7,��
2023/02/07,15:50,0.573,0.826,0.520,1.062,0.737,0.326,0.588,0.559,�k�k��,3.2,��
2023/02/07,16:00,0.573,0.826,0.521,1.061,0.736,0.326,0.587,0.559,�k�k��,2.6,��
2023/02/07,16:10,0.572,0.827,0.520,1.063,0.735,0.326,0.587,0.557,�k��,2.5,��
2023/02/07,16:20,0.573,0.829,0.520,1.063,0.738,0.326,0.588,0.559,�k��,2.9,��
2023/02/07,16:30,0.573,0.827,0.520,1.063,0.735,0.324,0.587,0.559,���k��,3.0,��
2023/02/07,16:40,0.572,0.827,0.519,1.061,0.734,0.325,0.588,0.559,�k�k��,2.6,��
2023/02/07,16:50,0.574,0.828,0.519,1.062,0.735,0.325,0.588,0.559,�k�k��,3.2,��
2023/02/07,17:00,0.571,0.826,0.520,1.063,0.736,0.326,0.588,0.559,�k�k��,3.0,��
2023/02/07,17:10,0.574,0.826,0.519,1.063,0.733,0.326,0.588,0.557,�k�k��,4.1,��
2023/02/07,17:20,0.573,0.826,0.518,1.061,0.735,0.325,0.588,0.559,�k�k��,3.9,��
2023/02/07,17:30,0.572,0.827,0.519,1.062,0.736,0.327,0.588,0.558,�k�k��,4.0,��
2023/02/07,17:40,0.571,0.827,0.518,1.062,0.735,0.325,0.589,0.559,�k�k��,3.9,��
2023/02/07,17:50,0.572,0.827,0.519,1.062,0.734,0.326,0.588,0.559,�k,3.7,��
2023/02/07,18:00,0.571,0.829,0.520,1.062,0.734,0.326,0.589,0.558,�k,3.7,��
2023/02/07,18:10,0.573,0.828,0.521,1.062,0.734,0.324,0.589,0.558,�k,4.3,��
2023/02/07,18:20,0.574,0.826,0.519,1.062,0.736,0.325,0.589,0.558,�k,3.8,��
2023/02/07,18:30,0.572,0.827,0.519,1.061,0.735,0.325,0.589,0.557,�k,3.9,��
2023/02/07,18:40,0.571,0.827,0.519,1.063,0.734,0.324,0.587,0.557,�k,3.4,��
2023/02/07,18:50,0.572,0.827,0.521,1.060,0.735,0.326,0.589,0.559,�k,3.5,��
2023/02/07,19:00,0.572,0.827,0.519,1.061,0.734,0.326,0.586,0.557,�k�k��,3.6,��
2023/02/07,19:10,0.573,0.828,0.519,1.064,0.735,0.325,0.588,0.559,�k�k��,3.8,��
2023/02/07,19:20,0.572,0.829,0.520,1.061,0.735,0.326,0.588,0.559,�k�k��,4.1,��
2023/02/07,19:30,0.572,0.826,0.520,1.063,0.734,0.325,0.587,0.557,�k�k��,4.2,��
2023/02/07,19:40,0.571,0.825,0.519,1.063,0.733,0.326,0.589,0.557,�k�k��,4.0,��
2023/02/07,19:50,0.571,0.828,0.518,1.063,0.735,0.325,0.588,0.559,�k�k��,4.4,��
2023/02/07,20:00,0.572,0.829,0.519,1.063,0.735,0.325,0.587,0.558,�k�k��,4.9,��
2023/02/07,20:10,0.573,0.829,0.519,1.064,0.733,0.326,0.586,0.559,�k�k��,4.9,��
2023/02/07,20:20,0.571,0.827,0.520,1.062,0.736,0.324,0.585,0.558,�k�k��,5.0,��
2023/02/07,20:30,0.572,0.828,0.520,1.061,0.736,0.325,0.587,0.558,�k�k��,4.0,�L
2023/02/07,20:40,0.574,0.829,0.518,1.060,0.734,0.325,0.587,0.558,�k�k��,4.5,�L
2023/02/07,20:50,0.571,0.826,0.520,1.060,0.735,0.327,0.586,0.558,�k�k��,4.8,�L
2023/02/07,21:00,0.572,0.825,0.519,1.061,0.734,0.325,0.587,0.559,�k�k��,4.8,�L
2023/02/07,21:10,0.572,0.827,0.520,1.063,0.737,0.326,0.587,0.557,�k�k��,5.1,�L
2023/02/07,21:20,0.571,0.829,0.519,1.063,0.735,0.326,0.588,0.559,�k�k��,5.4,�L
2023/02/07,21:30,0.573,0.828,0.518,1.062,0.733,0.327,0.589,0.557,�k�k��,5.3,�L
2023/02/07,21:40,0.571,0.827,0.520,1.063,0.735,0.326,0.588,0.558,�k�k��,5.1,�L
2023/02/07,21:50,0.571,0.827,0.518,1.064,0.736,0.326,0.589,0.557,�k�k��,5.4,�L
2023/02/07,22:00,0.571,0.828,0.520,1.062,0.734,0.325,0.589,0.558,�k�k��,5.7,�L
2023/02/07,22:10,0.571,0.827,0.519,1.061,0.734,0.326,0.589,0.558,�k�k��,5.3,�L
2023/02/07,22:20,0.571,0.826,0.523,1.061,0.732,0.326,0.588,0.560,�k�k��,4.8,�L
2023/02/07,22:30,0.571,0.824,0.518,1.061,0.731,0.326,0.590,0.556,�k�k��,4.6,�L
2023/02/07,22:40,0.570,0.821,0.517,1.058,0.730,0.327,0.587,0.557,�k,4.9,�L
2023/02/07,22:50,0.570,0.821,0.518,1.060,0.730,0.328,0.587,0.557,�k�k��,4.7,�L
2023/02/07,23:00,0.569,0.818,0.517,1.062,0.728,0.326,0.587,0.556,�k�k��,4.7,�L
2023/02/07,23:10,0.569,0.817,0.517,1.057,0.728,0.326,0.587,0.555,�k�k��,5.0,�L
2023/02/07,23:20,0.568,0.816,0.514,1.058,0.725,0.325,0.585,0.556,�k�k��,4.8,�L
2023/02/07,23:30,0.567,0.815,0.515,1.058,0.723,0.326,0.584,0.557,�k,4.7,�L
2023/02/07,23:40,0.566,0.815,0.514,1.055,0.723,0.326,0.584,0.555,�k�k��,4.5,�L
2023/02/07,23:50,0.566,0.813,0.514,1.055,0.722,0.326,0.584,0.555,�k�k��,5.7,�L
